This demonstration page uses our WeatherBlox Daily Observations layout. Learn more.

Left ArrowRight Arrow

Hourly Observations for December 7, 2022

Temp ( °F °C ) Dew Point ( °F °C ) Humidity (%) Winds ( mph kmh ) Pressure ( in mb ) Visibility ( mi km ) Precip ( " mm )
12:53 am 00:53 Cloudy with Mist and Fog 54 12.2 53 11.7 97 97 NE 3 6 30.24 1024 6 10 0.01 0.25
1:53 am 01:53 Cloudy with Mist and Fog 54 12.2 53 11.7 97 97 Calm 30.24 1024 5 8 0.00 0.00
2:53 am 02:53 Cloudy with Mist and Fog 54 12.2 54 12.2 100 100 Calm 30.23 1024 4 6 0.00 0.00
3:03 am 03:03 Cloudy with Mist and Fog 54 12.2 54 12.2 100 100 Calm 30.24 1024 2 3 0.00 0.00
3:18 am 03:18 Mostly Clear with Mist and Fog 54 12.2 54 12.2 100 100 Calm 30.23 1024 1 1 0.00 0.00
3:33 am 03:33 Mostly Clear with Fog 54 12.2 54 12.2 100 100 Calm 30.24 1024 1 1 0.00 0.00
3:53 am 03:53 Mostly Clear with Fog 54 12.2 54 12.2 100 100 Calm 30.24 1024 1 1 0.00 0.00
4:13 am 04:13 Mostly Clear with Mist and Fog 54 12.2 54 12.2 100 100 Calm 30.24 1024 1 1 0.00 0.00
4:20 am 04:20 Mostly Clear with Fog 54 12.2 54 12.2 100 100 Calm 30.24 1024 1 1 0.00 0.00
4:53 am 04:53 Cloudy with Fog 54 12.2 54 12.2 100 100 Calm 30.23 1024 1 1 0.00 0.00
5:00 am 05:00 Cloudy with Mist and Fog 54 12.2 54 12.2 100 100 Calm 30.23 1024 1 1 0.00 0.00
5:47 am 05:47 Mostly Clear with Fog 54 12 54 12 100 100 Calm 30.24 1024 1 1 0.00 0.00
5:53 am 05:53 Mostly Clear with Fog 54 12.2 54 12.2 100 100 Calm 30.24 1024 1 1 0.00 0.00
6:26 am 06:26 Mostly Clear with Fog 55 12.8 55 12.8 100 100 Calm 30.25 1024 1 1 0.00 0.00
6:53 am 06:53 Mostly Clear with Mist and Fog 55 12.8 55 12.8 100 100 Calm 30.23 1024 1 1 0.00 0.00
7:00 am 07:00 Cloudy with Mist and Fog 55 12.8 55 12.8 100 100 Calm 30.25 1024 2 2 0.00 0.00
7:16 am 07:16 Cloudy with Mist and Fog 55 12.8 55 12.8 100 100 Calm 30.25 1024 1 1 0.00 0.00
7:24 am 07:24 Cloudy with Mist and Fog 55 12.8 55 12.8 100 100 Calm 30.25 1024 1 2 0.00 0.00
7:53 am 07:53 Cloudy with Mist and Fog 56 13.3 56 13.3 100 100 Calm 30.25 1025 2 3 0.00 0.00
8:02 am 08:02 Cloudy with Mist and Fog 56 13.3 56 13.3 100 100 Calm 30.26 1025 1 2 0.00 0.00
8:53 am 08:53 Cloudy with Mist and Fog 57 13.9 57 13.9 100 100 Calm 30.27 1025 1 2 0.00 0.00
9:31 am 09:31 Cloudy with Mist and Fog 59 15 59 15 100 100 S 3 6 30.28 1026 2 3 0.01 0.13
9:53 am 09:53 Cloudy with Mist and Fog 59 15 59 15 100 100 W 3 6 30.29 1026 2 3 0.01 0.13
10:53 am 10:53 Cloudy with Mist and Fog 62 16.7 62 16.7 100 100 W 5 7 30.29 1026 4 6 0.00 0.00
11:53 am 11:53 Cloudy 67 19.4 65 18.3 93 93 SSW 7 11 30.27 1025 10 16 0.00 0.00
12:53 pm 12:53 Cloudy 68 20 65 18.3 90 90 SW 6 9 30.25 1024 10 16 0.00 0.00
1:45 pm 13:45 Cloudy 70 21.1 66 18.9 87 87 SSW 9 15 30.23 1024 10 16 0.00 0.00
1:53 pm 13:53 Cloudy 70 21.1 65 18.3 84 84 SW 7 11 30.23 1024 10 16 0.00 0.00
2:53 pm 14:53 Cloudy with Light Rain 71 21.7 66 18.9 84 84 WSW 5 7 30.23 1024 10 16 0.01 0.13
3:21 pm 15:21 Cloudy 70 21.1 67 19.4 90 90 Calm 30.21 1023 10 16 0.01 0.25
3:53 pm 15:53 Mostly Cloudy 71 21.7 67 19.4 87 87 Calm 30.23 1024 10 16 0.01 0.25
4:23 pm 16:23 Partly Cloudy 73 22.8 67 19.4 81 81 VRB 5 7 30.22 1023 10 16 0.00 0.00
4:53 pm 16:53 Mostly Cloudy 71 21.7 66 18.9 84 84 SW 5 7 30.24 1024 10 16 0.00 0.00
5:53 pm 17:53 Cloudy 70 21.1 66 18.9 87 87 Calm 30.24 1024 10 16 0.00 0.00
6:53 pm 18:53 Cloudy 68 20 66 18.9 93 93 Calm 30.25 1025 10 16 0.01 0.13
7:53 pm 19:53 Cloudy with Rain 67 19.4 66 18.9 97 97 Calm 30.27 1025 3 5 0.04 1.02
8:01 pm 20:01 Cloudy with Rain 67 19.4 66 18.9 97 97 Calm 30.27 1025 3 4 0.02 0.51
8:04 pm 20:04 Cloudy with Light Rain 67 19.4 66 18.9 97 97 Calm 30.26 1025 3 5 0.02 0.51
8:29 pm 20:29 Cloudy 66 18.9 66 18.9 100 100 Calm 30.27 1025 8 13 0.02 0.51
8:42 pm 20:42 Cloudy with Mist and Fog 65 18.3 65 18.3 100 100 Calm 30.27 1025 4 6 0.02 0.51
8:53 pm 20:53 Cloudy with Mist and Fog 65 18.3 65 18.3 100 100 Calm 30.27 1025 4 6 0.02 0.51
9:12 pm 21:12 Cloudy with Mist and Fog 65 18.3 65 18.3 100 100 WSW 3 6 30.27 1025 2 3 0.00 0.00
9:23 pm 21:23 Cloudy with Light Rain 66 18.9 66 18.9 100 100 Calm 30.27 1025 3 5 0.01 0.25
9:46 pm 21:46 Cloudy with Mist and Fog 65 18.3 65 18.3 100 100 Calm 30.27 1025 2 3 0.01 0.25
9:53 pm 21:53 Cloudy with Mist and Fog 65 18.3 65 18.3 100 100 Calm 30.28 1025 1 1 0.01 0.25
10:02 pm 22:02 Cloudy with Mist and Fog 65 18.3 65 18.3 100 100 Calm 30.27 1025 3 5 0.00 0.00
10:53 pm 22:53 Cloudy with Mist and Fog 65 18.3 65 18.3 100 100 Calm 30.27 1025 3 5 0.01 0.13
11:00 pm 23:00 Cloudy with Mist and Fog 64 17.8 64 17.8 100 100 Calm 30.27 1025 1 2 0.00 0.00
11:09 pm 23:09 Cloudy with Mist and Fog 65 18.3 65 18.3 100 100 Calm 30.26 1025 1 1 0.00 0.00
11:24 pm 23:24 Cloudy with Light Rain 65 18.3 65 18.3 100 100 Calm 30.26 1025 3 5 0.01 0.13
11:53 pm 23:53 Cloudy 65 18.3 65 18.3 100 100 Calm 30.25 1025 8 13 0.01 0.13

Powered by AerisWeather